Change the Weather History Date:

Wednesday, February 27, 2013

  Actual Average (KFSD) Record (KFSD)
Temperature  
Mean Temperature 26 °F 26 °F  
Max Temperature 33 °F 35 °F 63 °F (1895)
Min Temperature 19 °F 16 °F -19 °F (1899)
Degree Days  
Heating Degree Days 39 39  
Month to date heating degree days 1180  
Since 1 July heating degree days 5812  
Cooling Degree Days 0 0  
Month to date cooling degree days 0  
Year to date cooling degree days 0  
Moisture  
Dew Point 20 °F    
Average Humidity 75    
Maximum Humidity 86    
Minimum Humidity 60    
Precipitation  
Precipitation 0.00 in 0.03 in 1.00 in (1948)
Month to date precipitation 0.57  
Year to date precipitation 1.13  
Snow  
Snow 0.00 in 0.20 in 6.80 in (1969)
Month to date snowfall 6.6  
Since 1 July snowfall 31.2  
Snow Depth -    
Sea Level Pressure  
Sea Level Pressure 29.99 in    
Wind  
Wind Speed 13 mph (NNW)    
Max Wind Speed 21 mph    
Max Gust Speed 31 mph    
Visibility 9 miles    
Events      
T = Trace of Precipitation, MM = Missing Value Source: NWS Daily Summary

Daily Weather History Graph

Daily Weather History Graph

Search for Another Location

Airport or City:

Trip Planner

Search our weather history database for the weather conditions in past years. The results will help you decide how hot, cold, wet, or windy it might be!

Date:

Astronomy

Feb. 27, 2013 Rise Set
Actual Time 7:04 AM CST 6:11 PM CST
Civil Twilight 6:35 AM CST 6:40 PM CST
Nautical Twilight 6:02 AM CST 7:13 PM CST
Astronomical Twilight 5:29 AM CST 7:46 PM CST
Moon 8:40 PM CST (2/27) 7:34 AM CST (2/27)
Length of Visible Light 12h 04m
Length of Day
11h 07m
Waning Gibbous, 96% of the Moon is Illuminated
Feb 27
Waning Gibbous
Mar 4
Last Quarter
Mar 11
New
Mar 19
First Quarter
Mar 27
Full

Hourly Weather History & Observations

Time (CST) Temp. Windchill Dew Point Humidity Pressure Visibility Wind Dir Wind Speed Gust Speed Precip Events Conditions
12:17 AM 23.0 °F 12.4 °F 19.4 °F 86% 29.93 in 5.0 mi NNW 10.4 mph - N/A   Clear
12:37 AM 23.0 °F 14.7 °F 19.4 °F 86% 29.93 in 5.0 mi NNW 6.9 mph - N/A   Clear
12:56 AM 23.0 °F 14.7 °F 19.4 °F 86% 29.93 in 5.0 mi NNW 6.9 mph - N/A   Clear
1:17 AM 23.0 °F 12.4 °F 19.4 °F 86% 29.93 in 5.0 mi North 10.4 mph - N/A   Clear
1:37 AM 23.0 °F 13.9 °F 17.6 °F 80% 29.93 in 5.0 mi NNW 8.1 mph - N/A   Haze
1:56 AM 23.0 °F 13.1 °F 19.4 °F 86% 29.93 in 7.0 mi North 9.2 mph - N/A   Clear
2:17 AM 23.0 °F 12.4 °F 17.6 °F 80% 29.93 in 7.0 mi North 10.4 mph - N/A   Clear
2:36 AM 23.0 °F 13.1 °F 17.6 °F 80% 29.93 in 7.0 mi North 9.2 mph - N/A   Clear
3:17 AM 23.0 °F 13.1 °F 17.6 °F 80% 29.92 in 7.0 mi North 9.2 mph - N/A   Clear
3:36 AM 21.2 °F 10.1 °F 17.6 °F 86% 29.92 in 7.0 mi North 10.4 mph - N/A   Clear
4:17 AM 19.4 °F 7.2 °F 15.8 °F 86% 29.92 in 7.0 mi NNW 11.5 mph - N/A   Clear
4:36 AM 19.4 °F 7.2 °F 15.8 °F 86% 29.93 in 7.0 mi North 11.5 mph 16.1 mph N/A   Clear
4:57 AM 19.4 °F 10.4 °F 14.0 °F 80% 29.93 in 7.0 mi North 6.9 mph - N/A   Clear
5:17 AM 21.2 °F 12.6 °F 14.0 °F 74% 29.93 in 7.0 mi North 6.9 mph - N/A   Clear
5:37 AM 21.2 °F 9.5 °F 15.8 °F 80% 29.93 in 7.0 mi North 11.5 mph - N/A   Clear
6:16 AM 23.0 °F 11.7 °F 15.8 °F 74% 29.94 in 10.0 mi North 11.5 mph - N/A   Clear
6:37 AM 23.0 °F 13.1 °F 15.8 °F 74% 29.94 in 10.0 mi North 9.2 mph - N/A   Clear
6:57 AM 23.0 °F 12.4 °F 15.8 °F 74% 29.95 in 10.0 mi North 10.4 mph - N/A   Clear
7:16 AM 23.0 °F 11.7 °F 15.8 °F 74% 29.95 in 10.0 mi North 11.5 mph - N/A   Clear
7:37 AM 23.0 °F 11.7 °F 15.8 °F 74% 29.96 in 10.0 mi North 11.5 mph - N/A   Clear
7:56 AM 23.0 °F 11.7 °F 15.8 °F 74% 29.96 in 10.0 mi North 11.5 mph - N/A   Clear
8:16 AM 23.0 °F 14.7 °F 15.8 °F 74% 29.97 in 10.0 mi North 6.9 mph - N/A   Clear
8:37 AM 23.0 °F 11.7 °F 17.6 °F 80% 29.98 in 10.0 mi NNW 11.5 mph - N/A   Clear
8:56 AM 24.8 °F 12.9 °F 15.8 °F 69% 29.97 in 10.0 mi NNW 13.8 mph 18.4 mph N/A   Clear
9:16 AM 26.6 °F 14.3 °F 17.6 °F 69% 29.98 in 10.0 mi North 16.1 mph 21.9 mph N/A   Clear
9:37 AM 28.4 °F 17.0 °F 17.6 °F 64% 29.98 in 10.0 mi North 15.0 mph 20.7 mph N/A   Clear
9:56 AM 30.2 °F 18.1 °F 19.4 °F 64% 29.98 in 10.0 mi North 18.4 mph 23.0 mph N/A   Clear
10:17 AM 30.2 °F 18.5 °F 19.4 °F 64% 29.98 in 10.0 mi NNW 17.3 mph 24.2 mph N/A   Clear
10:56 AM 32.0 °F 20.8 °F 21.2 °F 64% 29.99 in 10.0 mi NNW 17.3 mph 24.2 mph N/A   Clear
11:17 AM 32.0 °F 20.1 °F 21.2 °F 64% 29.99 in 10.0 mi NNW 19.6 mph - N/A   Clear
11:36 AM 32.0 °F 20.1 °F 21.2 °F 64% 29.99 in 10.0 mi NNW 19.6 mph 25.3 mph N/A   Clear
11:57 AM 33.8 °F 23.2 °F 21.2 °F 60% 29.99 in 10.0 mi North 17.3 mph 25.3 mph N/A   Clear
12:17 PM 33.8 °F 23.5 °F 23.0 °F 65% 29.99 in 10.0 mi NNW 16.1 mph 21.9 mph N/A   Clear
12:36 PM 33.8 °F 22.8 °F 23.0 °F 65% 29.99 in 10.0 mi NNW 18.4 mph 25.3 mph N/A   Clear
12:57 PM 33.8 °F 23.2 °F 23.0 °F 65% 29.99 in 10.0 mi NNW 17.3 mph 23.0 mph N/A   Clear
1:17 PM 33.8 °F 22.2 °F 23.0 °F 65% 29.99 in 10.0 mi NNW 20.7 mph 25.3 mph N/A   Clear
1:36 PM 33.8 °F 22.8 °F 23.0 °F 65% 29.99 in 10.0 mi NNW 18.4 mph 25.3 mph N/A   Clear
1:57 PM 33.8 °F 23.2 °F 23.0 °F 65% 29.99 in 10.0 mi NNW 17.3 mph 21.9 mph N/A   Clear
2:16 PM 33.8 °F 23.5 °F 23.0 °F 65% 29.99 in 10.0 mi NNW 16.1 mph 21.9 mph N/A   Clear
2:37 PM 33.8 °F 23.2 °F 23.0 °F 65% 29.99 in 10.0 mi NNW 17.3 mph 21.9 mph N/A   Clear
2:57 PM 33.8 °F 22.8 °F 23.0 °F 65% 30.00 in 10.0 mi NNW 18.4 mph 23.0 mph N/A   Clear
3:16 PM 33.8 °F 24.3 °F 23.0 °F 65% 30.00 in 10.0 mi NW 13.8 mph 25.3 mph N/A   Clear
3:37 PM 32.0 °F 20.5 °F 23.0 °F 69% 30.01 in 10.0 mi NNW 18.4 mph 23.0 mph N/A   Clear
3:57 PM 32.0 °F 20.1 °F 23.0 °F 69% 30.01 in 10.0 mi NNW 19.6 mph 24.2 mph N/A   Clear
4:16 PM 32.0 °F 20.1 °F 23.0 °F 69% 30.00 in 10.0 mi NNW 19.6 mph 26.5 mph N/A   Clear
4:37 PM 32.0 °F 20.8 °F 23.0 °F 69% 30.00 in 10.0 mi NNW 17.3 mph 23.0 mph N/A   Clear
4:57 PM 30.2 °F 17.8 °F 21.2 °F 69% 30.00 in 10.0 mi NNW 19.6 mph 26.5 mph N/A   Clear
5:16 PM 30.2 °F 17.8 °F 23.0 °F 75% 30.00 in 10.0 mi NNW 19.6 mph 27.6 mph N/A   Clear
5:37 PM 28.4 °F 15.4 °F 23.0 °F 80% 30.01 in 10.0 mi NNW 19.6 mph 31.1 mph N/A   Clear
5:56 PM 28.4 °F 15.4 °F 21.2 °F 74% 30.02 in 10.0 mi NNW 19.6 mph 25.3 mph N/A   Clear
6:16 PM 26.6 °F 14.3 °F 21.2 °F 80% 30.02 in 10.0 mi NNW 16.1 mph 23.0 mph N/A   Clear
6:36 PM 26.6 °F 15.2 °F 21.2 °F 80% 30.04 in 10.0 mi NNW 13.8 mph 18.4 mph N/A   Clear
6:56 PM 26.6 °F 15.2 °F 21.2 °F 80% 30.05 in 10.0 mi NNW 13.8 mph 18.4 mph N/A   Clear
7:17 PM 24.8 °F 14.0 °F 19.4 °F 80% 30.05 in 10.0 mi NNW 11.5 mph - N/A   Clear
7:36 PM 24.8 °F 12.9 °F 19.4 °F 80% 30.06 in 10.0 mi NNW 13.8 mph 17.3 mph N/A   Clear
8:17 PM 26.6 °F 14.3 °F 21.2 °F 80% 30.07 in 10.0 mi North 16.1 mph 20.7 mph N/A   Mostly Cloudy
8:37 PM 26.6 °F 14.3 °F 21.2 °F 80% 30.07 in 10.0 mi North 16.1 mph 23.0 mph N/A   Overcast
8:56 PM 28.4 °F 16.2 °F 23.0 °F 80% 30.06 in 10.0 mi North 17.3 mph 24.2 mph N/A   Overcast
9:17 PM 28.4 °F 17.0 °F 23.0 °F 80% 30.07 in 10.0 mi North 15.0 mph 21.9 mph N/A   Overcast
9:37 PM 28.4 °F 15.8 °F 23.0 °F 80% 30.06 in 10.0 mi NNW 18.4 mph - N/A   Overcast
9:56 PM 28.4 °F 17.5 °F 23.0 °F 80% 30.07 in 10.0 mi North 13.8 mph 21.9 mph N/A   Overcast
10:17 PM 28.4 °F 17.5 °F 23.0 °F 80% 30.07 in 10.0 mi North 13.8 mph - N/A   Overcast
10:36 PM 26.6 °F 14.7 °F 21.2 °F 80% 30.07 in 10.0 mi North 15.0 mph - N/A   Overcast
10:57 PM 26.6 °F 14.3 °F 21.2 °F 80% 30.07 in 10.0 mi North 16.1 mph 19.6 mph N/A   Overcast
11:17 PM 26.6 °F 13.8 °F 21.2 °F 80% 30.08 in 10.0 mi North 17.3 mph 21.9 mph N/A   Overcast
11:36 PM 26.6 °F 15.7 °F 21.2 °F 80% 30.08 in 10.0 mi North 12.7 mph 19.6 mph N/A   Overcast